This is the latest recevied weather packets stored in our database for station/object IR9AK-10. If no packets are shown the sender has not sent any weather packets the latest 1 day(s).
| Time | Temp. | Humidity | Pressure | Rain* | Wind** | Luminosity | Snow |
|---|---|---|---|---|---|---|---|
| 1778028341 | 20° C | 54% | 1058.2 hPa | - | - | - | - |
| 1778027143 | 20.56° C | 53% | 1058.4 hPa | - | - | - | - |
| 1778026543 | 20.56° C | 51% | 1058.4 hPa | - | - | - | - |
| 1778025944 | 21.11° C | 50% | 1058.5 hPa | - | - | - | - |
| 1778025345 | 21.11° C | 50% | 1058.5 hPa | - | - | - | - |
| 1778024746 | 21.11° C | 51% | 1058.5 hPa | - | - | - | - |
| 1778023548 | 21.11° C | 50% | 1058.6 hPa | - | - | - | - |
| 1778020552 | 20.56° C | 53% | 1058.7 hPa | - | - | - | - |
| 1778019953 | 20.56° C | 54% | 1058.8 hPa | - | - | - | - |
| 1778019354 | 20.56° C | 54% | 1058.9 hPa | - | - | - | - |
| 1778017557 | 20.56° C | 54% | 1059.5 hPa | - | - | - | - |
| 1778015445 | 20.56° C | 53% | 1059.7 hPa | - | - | - | - |
| 1778012221 | 20° C | 56% | 1060.1 hPa | - | - | - | - |
| 1778011621 | 20° C | 61% | 1060.2 hPa | - | - | - | - |
| 1778009226 | 20.56° C | 65% | 1060.6 hPa | - | - | - | - |
| 1778007428 | 20.56° C | 63% | 1060.7 hPa | - | - | - | - |
| 1778006830 | 20.56° C | 63% | 1060.7 hPa | - | - | - | - |
| 1778006231 | 21.11° C | 63% | 1060.7 hPa | - | - | - | - |
| 1778005632 | 21.11° C | 63% | 1060.7 hPa | - | - | - | - |
| 1778004052 | 21.11° C | 63% | 1060.8 hPa | - | - | - | - |
| 1778002854 | 21.11° C | 62% | 1060.9 hPa | - | - | - | - |
| 1778002256 | 21.11° C | 62% | 1060.9 hPa | - | - | - | - |
| 1778001656 | 21.11° C | 64% | 1061 hPa | - | - | - | - |
* Rain since midnight (hover to see other rain measurements)
** Current wind speed in m/s (hover to see current wind gust speed)